| time (UTC) | temp C | wind direction | speed KPH | gust KPH | rain 1hr cm | rain 24hr cm | rain mn cm | humidity % | barometer mb |
| 20260506143306 | 7 | 350 | 0.0 | 6.4 | 0.00 | 0.00 | 0.00 | 62 | 987.5 |
| 20260506142804 | 7 | 46 | 6.4 | 8.0 | 0.00 | 0.00 | 0.00 | 60 | 987.4 |
| 20260506142302 | 7 | 78 | 9.7 | 11.3 | 0.00 | 0.00 | 0.00 | 63 | 987.3 |
| 20260506141800 | 7 | 80 | 6.4 | 9.7 | 0.00 | 0.00 | 0.00 | 63 | 987.4 |
| 20260506141258 | 7 | 95 | 8.0 | 9.7 | 0.00 | 0.00 | 0.00 | 64 | 987.3 |
| 20260506140755 | 6 | 79 | 6.4 | 14.5 | 0.00 | 0.00 | 0.00 | 65 | 987.2 |
| 20260506140252 | 6 | 85 | 3.2 | 8.0 | 0.00 | 0.00 | 0.00 | 66 | 987.2 |
| 20260506135749 | 6 | 22 | 9.7 | 14.5 | 0.00 | 0.00 | 0.00 | 66 | 987.4 |
| 20260506135245 | 6 | 33 | 4.8 | 8.0 | 0.00 | 0.00 | 0.00 | 66 | 987.2 |
| 20260506134742 | 6 | 12 | 6.4 | 8.0 | 0.00 | 0.00 | 0.00 | 66 | 987.2 |
| 20260506134238 | 6 | 34 | 6.4 | 8.0 | 0.00 | 0.00 | 0.00 | 66 | 987.1 |
| 20260506133736 | 6 | 4 | 4.8 | 11.3 | 0.00 | 0.00 | 0.00 | 67 | 987.2 |
| 20260506133232 | 6 | 352 | 4.8 | 9.7 | 0.00 | 0.00 | 0.00 | 67 | 987.2 |
| 20260506132729 | 6 | 36 | 4.8 | 8.0 | 0.00 | 0.00 | 0.00 | 65 | 986.6 |
| 20260506132226 | 6 | 351 | 3.2 | 6.4 | 0.00 | 0.00 | 0.00 | 67 | 986.8 |
| 20260506131724 | 5 | 348 | 1.6 | 8.0 | 0.00 | 0.00 | 0.00 | 67 | 987.0 |
| 20260506131220 | 6 | 49 | 9.7 | 11.3 | 0.00 | 0.00 | 0.00 | 67 | 987.0 |
| 20260506130717 | 6 | 78 | 8.0 | 11.3 | 0.00 | 0.00 | 0.00 | 66 | 986.9 |
| 20260506130214 | 5 | 280 | 4.8 | 8.0 | 0.00 | 0.00 | 0.00 | 67 | 986.9 |
| 20260506125712 | 6 | 42 | 4.8 | 6.4 | 0.00 | 0.00 | 0.00 | 68 | 986.6 |
| 20260506125209 | 5 | 130 | 6.4 | 12.9 | 0.00 | 0.00 | 0.00 | 69 | 986.7 |
| 20260506124707 | 5 | 56 | 0.0 | 9.7 | 0.00 | 0.00 | 0.00 | 70 | 986.5 |
| 20260506124205 | 5 | 32 | 4.8 | 6.4 | 0.00 | 0.00 | 0.00 | 71 | 986.5 |
| 20260506123702 | 5 | 53 | 6.4 | 9.7 | 0.00 | 0.00 | 0.00 | 72 | 986.5 |
| 20260506123201 | 5 | 92 | 8.0 | 11.3 | 0.00 | 0.00 | 0.00 | 70 | 986.4 |
| 20260506122657 | 5 | 90 | 4.8 | 8.0 | 0.00 | 0.00 | 0.00 | 72 | 986.5 |
| 20260506122155 | 5 | 98 | 9.7 | 14.5 | 0.00 | 0.00 | 0.00 | 73 | 986.1 |
| 20260506121653 | 5 | 81 | 4.8 | 9.7 | 0.00 | 0.00 | 0.00 | 75 | 986.5 |
| 20260506121149 | 5 | 59 | 6.4 | 8.0 | 0.00 | 0.00 | 0.00 | 76 | 986.2 |
| 20260506120647 | 5 | 53 | 4.8 | 4.8 | 0.00 | 0.00 | 0.00 | 76 | 985.9 |
| 20260506120143 | 5 | 35 | 9.7 | 11.3 | 0.00 | 0.00 | 0.00 | 75 | 986.0 |
| 20260506115642 | 5 | 0 | 3.2 | 4.8 | 0.00 | 0.00 | 0.00 | 75 | 985.9 |
| 20260506115140 | 5 | 307 | 1.6 | 4.8 | 0.00 | 0.00 | 0.00 | 77 | 985.6 |
| 20260506114637 | 4 | 4 | 3.2 | 9.7 | 0.00 | 0.00 | 0.00 | 77 | 985.6 |
| 20260506114135 | 4 | 4 | 3.2 | 4.8 | 0.00 | 0.00 | 0.00 | 77 | 985.5 |
| 20260506113633 | 5 | 0 | 4.8 | 4.8 | 0.00 | 0.00 | 0.00 | 77 | 985.4 |
| 20260506113130 | 5 | 72 | 4.8 | 4.8 | 0.00 | 0.00 | 0.00 | 77 | 985.6 |
| 20260506112626 | 4 | 5 | 0.0 | 4.8 | 0.00 | 0.00 | 0.00 | 78 | 985.5 |
| 20260506112124 | 4 | 0 | 3.2 | 3.2 | 0.00 | 0.00 | 0.00 | 78 | 985.3 |
| 20260506111621 | 4 | 90 | 0.0 | 1.6 | 0.00 | 0.00 | 0.00 | 78 | 985.3 |
| 20260506111119 | 4 | 71 | 1.6 | 3.2 | 0.00 | 0.00 | 0.00 | 78 | 985.1 |
| 20260506110616 | 4 | 74 | 0.0 | 3.2 | 0.00 | 0.00 | 0.00 | 77 | 985.0 |
| 20260506110114 | 5 | 69 | 1.6 | 1.6 | 0.00 | 0.00 | 0.00 | 75 | 985.1 |
| 20260506105610 | 5 | 96 | 1.6 | 3.2 | 0.00 | 0.00 | 0.00 | 75 | 984.8 |
| 20260506105107 | 4 | 85 | 3.2 | 4.8 | 0.00 | 0.00 | 0.00 | 74 | 984.9 |
| 20260506104605 | 5 | 90 | 0.0 | 3.2 | 0.00 | 0.00 | 0.00 | 75 | 984.9 |
| 20260506104102 | 5 | 72 | 3.2 | 4.8 | 0.00 | 0.00 | 0.00 | 74 | 984.9 |
| 20260506103559 | 5 | 66 | 0.0 | 1.6 | 0.00 | 0.00 | 0.00 | 74 | 984.9 |
| 20260506103056 | 5 | 98 | 0.0 | 3.2 | 0.00 | 0.00 | 0.00 | 74 | 984.8 |
| 20260506102554 | 5 | 69 | 1.6 | 4.8 | 0.00 | 0.00 | 0.00 | 73 | 984.7 |
| 20260506102051 | 5 | 105 | 0.0 | 1.6 | 0.00 | 0.00 | 0.00 | 73 | 984.7 |
| 20260506101548 | 5 | 74 | 0.0 | 4.8 | 0.00 | 0.00 | 0.00 | 73 | 984.8 |
| 20260506101045 | 5 | 36 | 1.6 | 4.8 | 0.00 | 0.00 | 0.00 | 74 | 984.7 |
| 20260506100543 | 5 | 28 | 0.0 | 3.2 | 0.00 | 0.00 | 0.00 | 77 | 984.6 |
| 20260506100041 | 5 | 26 | 4.8 | 6.4 | 0.00 | 0.00 | 0.00 | 79 | 984.4 |
| 20260506095540 | 5 | 350 | 0.0 | 3.2 | 0.00 | 0.00 | 0.00 | 80 | 984.3 |
| 20260506095036 | 6 | 286 | 0.0 | 3.2 | 0.00 | 0.00 | 0.00 | 81 | 983.9 |
| 20260506094533 | 6 | 69 | 0.0 | 3.2 | 0.00 | 0.00 | 0.00 | 82 | 983.8 |
| 20260506094031 | 6 | 77 | 3.2 | 4.8 | 0.00 | 0.00 | 0.00 | 83 | 984.1 |
| 20260506093529 | 6 | 71 | 3.2 | 3.2 | 0.00 | 0.00 | 0.00 | 83 | 984.1 |
| 20260506093026 | 6 | 48 | 3.2 | 4.8 | 0.00 | 0.00 | 0.00 | 83 | 984.0 |
| 20260506092524 | 6 | 111 | 0.0 | 3.2 | 0.00 | 0.00 | 0.00 | 83 | 984.1 |
| 20260506092021 | 6 | 262 | 0.0 | 3.2 | 0.00 | 0.00 | 0.00 | 83 | 984.0 |
| 20260506091520 | 6 | 23 | 0.0 | 0.0 | 0.00 | 0.00 | 0.00 | 83 | 984.0 |
| 20260506091016 | 6 | 23 | 0.0 | 0.0 | 0.00 | 0.00 | 0.00 | 83 | 984.1 |
| 20260506090514 | 6 | 29 | 0.0 | 1.6 | 0.00 | 0.00 | 0.00 | 82 | 984.0 |
| 20260506090010 | 6 | 69 | 0.0 | 4.8 | 0.00 | 0.00 | 0.00 | 82 | 983.7 |
| 20260506085507 | 6 | 114 | 0.0 | 0.0 | 0.00 | 0.00 | 0.00 | 81 | 983.8 |
| 20260506085003 | 6 | 114 | 0.0 | 1.6 | 0.00 | 0.00 | 0.00 | 80 | 983.8 |
| 20260506084500 | 6 | 26 | 0.0 | 4.8 | 0.00 | 0.00 | 0.00 | 80 | 983.8 |
| 20260506083956 | 6 | 66 | 1.6 | 3.2 | 0.00 | 0.00 | 0.00 | 79 | 983.8 |
| 20260506083454 | 6 | 346 | 0.0 | 0.0 | 0.00 | 0.00 | 0.00 | 79 | 983.9 |
| 20260506082951 | 6 | 66 | 0.0 | 0.0 | 0.00 | 0.00 | 0.00 | 78 | 983.9 |
| 20260506082448 | 6 | 54 | 1.6 | 3.2 | 0.00 | 0.00 | 0.00 | 78 | 984.0 |
| 20260506081943 | 6 | 54 | 0.0 | 0.0 | 0.00 | 0.00 | 0.00 | 77 | 984.0 |
| 20260506081442 | 6 | 270 | 0.0 | 1.6 | 0.00 | 0.00 | 0.00 | 76 | 984.2 |
| 20260506080939 | 6 | 294 | 0.0 | 0.0 | 0.00 | 0.00 | 0.00 | 76 | 984.1 |
| 20260506080436 | 6 | 131 | 0.0 | 0.0 | 0.00 | 0.00 | 0.00 | 75 | 983.9 |
| 20260506073420 | 7 | 337 | 0.0 | 0.0 | 0.00 | 0.00 | 0.00 | 71 | 984.0 |
| 20260506072917 | 7 | 286 | 0.0 | 1.6 | 0.00 | 0.00 | 0.00 | 70 | 983.9 |
| 20260506072414 | 7 | 40 | 0.0 | 1.6 | 0.00 | 0.00 | 0.00 | 69 | 983.5 |
| 20260506071912 | 7 | 4 | 0.0 | 3.2 | 0.00 | 0.00 | 0.00 | 68 | 983.9 |
| 20260506071410 | 7 | 294 | 0.0 | 3.2 | 0.00 | 0.00 | 0.00 | 68 | 983.8 |
| 20260506070906 | 7 | 337 | 1.6 | 3.2 | 0.00 | 0.00 | 0.00 | 67 | 984.0 |
| 20260506070403 | 7 | 283 | 1.6 | 3.2 | 0.00 | 0.00 | 0.00 | 66 | 983.8 |
| 20260506062340 | 7 | 340 | 0.0 | 3.2 | 0.00 | 0.00 | 0.00 | 63 | 983.7 |
| 20260506061836 | 7 | 337 | 0.0 | 3.2 | 0.00 | 0.00 | 0.00 | 62 | 983.9 |
| 20260506061333 | 7 | 264 | 0.0 | 4.8 | 0.00 | 0.00 | 0.00 | 62 | 983.9 |
| 20260506060831 | 8 | 292 | 4.8 | 4.8 | 0.00 | 0.00 | 0.00 | 61 | 984.3 |
| 20260506060329 | 8 | 286 | 0.0 | 3.2 | 0.00 | 0.00 | 0.00 | 60 | 983.7 |
| 20260506051301 | 8 | 346 | 0.0 | 1.6 | 0.00 | 0.00 | 0.00 | 60 | 983.8 |
| 20260506050759 | 8 | 289 | 0.0 | 3.2 | 0.00 | 0.00 | 0.00 | 58 | 983.7 |
| 20260506050256 | 8 | 263 | 1.6 | 4.8 | 0.00 | 0.00 | 0.00 | 59 | 983.8 |
| 20260506044746 | 8 | 286 | 0.0 | 3.2 | 0.00 | 0.00 | 0.00 | 59 | 983.9 |
| 20260506044244 | 8 | 254 | 0.0 | 3.2 | 0.00 | 0.00 | 0.00 | 58 | 983.5 |
| 20260506043741 | 8 | 297 | 0.0 | 3.2 | 0.00 | 0.00 | 0.00 | 58 | 983.4 |
| 20260506043238 | 8 | 285 | 1.6 | 3.2 | 0.00 | 0.00 | 0.00 | 57 | 983.7 |
| 20260506042737 | 8 | 286 | 3.2 | 3.2 | 0.00 | 0.00 | 0.00 | 57 | 983.6 |
| 20260506042235 | 8 | 286 | 0.0 | 1.6 | 0.00 | 0.00 | 0.00 | 57 | 983.6 |
| 20260506041733 | 8 | 285 | 0.0 | 1.6 | 0.00 | 0.00 | 0.00 | 58 | 983.8 |
| 20260506041230 | 8 | 334 | 0.0 | 3.2 | 0.00 | 0.00 | 0.00 | 57 | 983.5 |
| 20260506040727 | 8 | 300 | 0.0 | 3.2 | 0.00 | 0.00 | 0.00 | 56 | 983.6 |
| 20260506040224 | 8 | 66 | 0.0 | 1.6 | 0.00 | 0.00 | 0.00 | 56 | 983.6 |
| 20260506035721 | 8 | 291 | 0.0 | 3.2 | 0.00 | 0.00 | 0.00 | 56 | 983.7 |
| 20260506035218 | 8 | 23 | 0.0 | 3.2 | 0.00 | 0.00 | 0.00 | 55 | 983.7 |
| 20260506034715 | 8 | 331 | 0.0 | 4.8 | 0.00 | 0.00 | 0.00 | 56 | 983.5 |
| 20260506034212 | 8 | 263 | 0.0 | 3.2 | 0.00 | 0.00 | 0.00 | 58 | 983.7 |
| 20260506033709 | 8 | 337 | 1.6 | 3.2 | 0.00 | 0.00 | 0.00 | 59 | 983.6 |
| 20260506033206 | 8 | 246 | 0.0 | 1.6 | 0.00 | 0.00 | 0.00 | 55 | 983.6 |
| 20260506032703 | 8 | 285 | 0.0 | 1.6 | 0.00 | 0.00 | 0.00 | 61 | 983.7 |
| 20260506032200 | 8 | 157 | 0.0 | 3.2 | 0.00 | 0.00 | 0.00 | 56 | 983.9 |
| 20260506031657 | 8 | 289 | 0.0 | 3.2 | 0.00 | 0.00 | 0.00 | 56 | 983.7 |
| 20260506031154 | 8 | 294 | 0.0 | 3.2 | 0.00 | 0.00 | 0.00 | 55 | 983.7 |
| 20260506030652 | 8 | 270 | 0.0 | 1.6 | 0.00 | 0.00 | 0.00 | 55 | 983.8 |
| 20260506030149 | 9 | 286 | 0.0 | 3.2 | 0.00 | 0.00 | 0.00 | 55 | 983.7 |
| 20260506025646 | 9 | 283 | 0.0 | 0.0 | 0.00 | 0.00 | 0.00 | 54 | 983.6 |
| 20260506025142 | 9 | 283 | 0.0 | 1.6 | 0.00 | 0.00 | 0.00 | 54 | 983.7 |
| 20260506024640 | 9 | 188 | 0.0 | 0.0 | 0.00 | 0.00 | 0.00 | 53 | 983.8 |
| 20260506024136 | 9 | 0 | 0.0 | 3.2 | 0.00 | 0.00 | 0.00 | 53 | 983.7 |
| 20260506023632 | 9 | 286 | 0.0 | 1.6 | 0.00 | 0.00 | 0.00 | 54 | 983.9 |
| 20260506023129 | 9 | 209 | 0.0 | 3.2 | 0.00 | 0.00 | 0.00 | 53 | 983.4 |
| 20260506022627 | 9 | 14 | 0.0 | 3.2 | 0.00 | 0.00 | 0.00 | 52 | 983.5 |
| 20260506022124 | 9 | 279 | 0.0 | 1.6 | 0.00 | 0.00 | 0.00 | 52 | 983.5 |
| 20260506021622 | 9 | 240 | 0.0 | 3.2 | 0.00 | 0.00 | 0.00 | 53 | 983.8 |
| 20260506021119 | 10 | 234 | 1.6 | 3.2 | 0.00 | 0.00 | 0.00 | 52 | 983.7 |
| 20260506020616 | 10 | 279 | 0.0 | 3.2 | 0.00 | 0.00 | 0.00 | 53 | 983.9 |
| 20260506020114 | 10 | 251 | 0.0 | 0.0 | 0.00 | 0.00 | 0.00 | 53 | 983.7 |
| 20260506015611 | 10 | 255 | 0.0 | 1.6 | 0.00 | 0.00 | 0.00 | 52 | 983.5 |
| 20260506015108 | 10 | 270 | 1.6 | 3.2 | 0.00 | 0.00 | 0.00 | 49 | 983.3 |
| 20260506014605 | 10 | 276 | 3.2 | 3.2 | 0.00 | 0.00 | 0.00 | 51 | 983.2 |
| 20260506014100 | 10 | 257 | 0.0 | 3.2 | 0.00 | 0.00 | 0.00 | 51 | 983.3 |
| 20260506013559 | 10 | 246 | 0.0 | 0.0 | 0.00 | 0.00 | 0.00 | 51 | 983.3 |
| 20260506013055 | 10 | 291 | 0.0 | 3.2 | 0.00 | 0.00 | 0.00 | 49 | 983.1 |
| 20260506012551 | 10 | 286 | 1.6 | 3.2 | 0.00 | 0.00 | 0.00 | 51 | 983.1 |
| 20260506012048 | 10 | 275 | 0.0 | 4.8 | 0.00 | 0.00 | 0.00 | 50 | 983.2 |
| 20260506011546 | 10 | 290 | 3.2 | 3.2 | 0.00 | 0.00 | 0.00 | 49 | 983.2 |
| 20260506011042 | 10 | 0 | 0.0 | 6.4 | 0.00 | 0.00 | 0.00 | 48 | 983.0 |
| 20260506010542 | 10 | 270 | 3.2 | 4.8 | 0.00 | 0.00 | 0.00 | 50 | 983.2 |
| 20260506010038 | 10 | 215 | 0.0 | 3.2 | 0.00 | 0.00 | 0.00 | 51 | 983.0 |
| 20260506005535 | 10 | 278 | 0.0 | 1.6 | 0.00 | 0.00 | 0.00 | 50 | 983.0 |
| 20260506005031 | 10 | 186 | 0.0 | 1.6 | 0.00 | 0.00 | 0.00 | 50 | 983.1 |
| 20260506004529 | 10 | 263 | 0.0 | 1.6 | 0.00 | 0.00 | 0.00 | 50 | 983.1 |
| 20260506004025 | 10 | 353 | 0.0 | 3.2 | 0.00 | 0.00 | 0.00 | 49 | 983.2 |
| 20260506003521 | 10 | 352 | 0.0 | 1.6 | 0.00 | 0.00 | 0.00 | 49 | 983.0 |
| 20260506003018 | 10 | 0 | 0.0 | 4.8 | 0.00 | 0.00 | 0.00 | 47 | 983.0 |
| 20260506002514 | 10 | 228 | 0.0 | 4.8 | 0.00 | 0.00 | 0.00 | 48 | 983.0 |
| 20260506002009 | 10 | 260 | 4.8 | 4.8 | 0.00 | 0.00 | 0.00 | 47 | 983.0 |
| 20260506001506 | 11 | 213 | 0.0 | 4.8 | 0.00 | 0.00 | 0.00 | 46 | 982.8 |
| 20260506001004 | 11 | 29 | 3.2 | 3.2 | 0.00 | 0.00 | 0.00 | 47 | 982.7 |
| 20260506000501 | 11 | 299 | 0.0 | 3.2 | 0.00 | 0.00 | 0.00 | 45 | 982.7 |
| 20260505235958 | 11 | 294 | 0.0 | 4.8 | 0.00 | 0.00 | 0.00 | 46 | 982.7 |
| 20260505235456 | 11 | 241 | 3.2 | 4.8 | 0.00 | 0.00 | 0.00 | 45 | 982.7 |
| 20260505234952 | 11 | 218 | 3.2 | 8.0 | 0.00 | 0.00 | 0.00 | 45 | 982.5 |
| 20260505234450 | 11 | 286 | 0.0 | 6.4 | 0.00 | 0.00 | 0.00 | 45 | 982.7 |
| 20260505233946 | 11 | 229 | 0.0 | 4.8 | 0.00 | 0.00 | 0.00 | 45 | 982.5 |
| 20260505233444 | 11 | 294 | 1.6 | 4.8 | 0.00 | 0.00 | 0.00 | 44 | 982.3 |
| 20260505232941 | 11 | 318 | 4.8 | 4.8 | 0.00 | 0.00 | 0.00 | 46 | 982.4 |
| 20260505232439 | 11 | 279 | 3.2 | 3.2 | 0.00 | 0.00 | 0.00 | 46 | 982.4 |
| 20260505231936 | 11 | 270 | 0.0 | 4.8 | 0.00 | 0.00 | 0.00 | 46 | 982.2 |
| 20260505231433 | 11 | 221 | 3.2 | 8.0 | 0.00 | 0.00 | 0.00 | 44 | 982.2 |
| 20260505230932 | 11 | 286 | 3.2 | 4.8 | 0.00 | 0.00 | 0.00 | 46 | 982.4 |
| 20260505230429 | 11 | 283 | 1.6 | 4.8 | 0.00 | 0.00 | 0.00 | 45 | 982.4 |
| 20260505225925 | 11 | 237 | 0.0 | 4.8 | 0.00 | 0.00 | 0.00 | 47 | 982.3 |
| 20260505225422 | 12 | 270 | 0.0 | 6.4 | 0.00 | 0.00 | 0.00 | 46 | 982.4 |
| 20260505224918 | 12 | 250 | 3.2 | 6.4 | 0.00 | 0.00 | 0.00 | 50 | 982.4 |
| 20260505224415 | 12 | 258 | 8.0 | 8.0 | 0.00 | 0.00 | 0.00 | 50 | 982.4 |
| 20260505223912 | 12 | 278 | 3.2 | 3.2 | 0.00 | 0.00 | 0.00 | 58 | 982.4 |
| 20260505223409 | 12 | 240 | 3.2 | 9.7 | 0.00 | 0.00 | 0.00 | 57 | 982.4 |
| 20260505222905 | 12 | 187 | 3.2 | 4.8 | 0.00 | 0.00 | 0.00 | 58 | 982.4 |
| 20260505222402 | 12 | 240 | 0.0 | 4.8 | 0.00 | 0.00 | 0.00 | 57 | 982.4 |
| 20260505221858 | 12 | 161 | 0.0 | 4.8 | 0.00 | 0.00 | 0.00 | 57 | 982.6 |
| 20260505221355 | 12 | 278 | 0.0 | 6.4 | 0.00 | 0.00 | 0.00 | 56 | 982.4 |
| 20260505220852 | 12 | 217 | 0.0 | 8.0 | 0.00 | 0.00 | 0.00 | 55 | 982.4 |
| 20260505220349 | 12 | 277 | 0.0 | 4.8 | 0.00 | 0.00 | 0.00 | 55 | 982.4 |
| 20260505215847 | 12 | 350 | 0.0 | 3.2 | 0.00 | 0.00 | 0.00 | 56 | 982.4 |
| 20260505215345 | 12 | 324 | 3.2 | 6.4 | 0.00 | 0.00 | 0.00 | 56 | 982.6 |
| 20260505214843 | 12 | 225 | 0.0 | 4.8 | 0.00 | 0.00 | 0.00 | 55 | 982.5 |
| 20260505214340 | 12 | 270 | 0.0 | 8.0 | 0.00 | 0.00 | 0.00 | 56 | 982.5 |
| 20260505213837 | 12 | 180 | 0.0 | 1.6 | 0.00 | 0.00 | 0.00 | 57 | 982.6 |
| 20260505213335 | 12 | 340 | 0.0 | 3.2 | 0.00 | 0.00 | 0.00 | 57 | 982.4 |
| 20260505212830 | 12 | 14 | 0.0 | 3.2 | 0.00 | 0.00 | 0.00 | 56 | 982.5 |
| 20260505212328 | 12 | 294 | 0.0 | 3.2 | 0.00 | 0.00 | 0.00 | 56 | 982.5 |
| 20260505211824 | 12 | 150 | 0.0 | 4.8 | 0.00 | 0.00 | 0.00 | 56 | 982.4 |
| 20260505211322 | 12 | 342 | 6.4 | 8.0 | 0.00 | 0.00 | 0.00 | 57 | 982.5 |
| 20260505210818 | 12 | 283 | 1.6 | 3.2 | 0.00 | 0.00 | 0.00 | 58 | 982.7 |
| 20260505210315 | 12 | 203 | 1.6 | 9.7 | 0.00 | 0.00 | 0.00 | 58 | 982.7 |
| 20260505205812 | 12 | 240 | 0.0 | 6.4 | 0.00 | 0.00 | 0.00 | 59 | 982.5 |
| 20260505205310 | 12 | 248 | 0.0 | 4.8 | 0.00 | 0.00 | 0.00 | 59 | 982.5 |
| 20260505204806 | 12 | 140 | 3.2 | 4.8 | 0.00 | 0.00 | 0.00 | 61 | 982.5 |
| 20260505204304 | 12 | 306 | 0.0 | 6.4 | 0.00 | 0.00 | 0.00 | 63 | 982.5 |
| 20260505203801 | 12 | 279 | 0.0 | 6.4 | 0.00 | 0.00 | 0.00 | 64 | 982.3 |
| 20260505203258 | 12 | 284 | 8.0 | 8.0 | 0.00 | 0.00 | 0.00 | 65 | 982.5 |
| 20260505202754 | 12 | 246 | 1.6 | 4.8 | 0.00 | 0.00 | 0.00 | 66 | 982.4 |
| 20260505202250 | 12 | 293 | 3.2 | 4.8 | 0.00 | 0.00 | 0.00 | 65 | 982.5 |
| 20260505201747 | 12 | 180 | 1.6 | 8.0 | 0.00 | 0.00 | 0.00 | 66 | 982.5 |
| 20260505201244 | 12 | 212 | 3.2 | 3.2 | 0.00 | 0.00 | 0.00 | 65 | 982.3 |
| 20260505200743 | 12 | 290 | 0.0 | 6.4 | 0.00 | 0.00 | 0.00 | 64 | 982.5 |
| 20260505200240 | 12 | 285 | 0.0 | 6.4 | 0.00 | 0.00 | 0.00 | 64 | 982.5 |
| 20260505195735 | 12 | 202 | 3.2 | 8.0 | 0.00 | 0.00 | 0.00 | 63 | 982.6 |
| 20260505195233 | 12 | 257 | 1.6 | 4.8 | 0.00 | 0.00 | 0.00 | 63 | 982.5 |
| 20260505194730 | 12 | 215 | 1.6 | 4.8 | 0.00 | 0.00 | 0.00 | 63 | 982.6 |
| 20260505194226 | 12 | 254 | 0.0 | 6.4 | 0.00 | 0.00 | 0.00 | 63 | 982.7 |
| 20260505193722 | 12 | 26 | 3.2 | 4.8 | 0.00 | 0.00 | 0.00 | 63 | 982.7 |
| 20260505193220 | 12 | 252 | 4.8 | 9.7 | 0.00 | 0.00 | 0.00 | 63 | 982.9 |
| 20260505192718 | 12 | 294 | 1.6 | 4.8 | 0.00 | 0.00 | 0.00 | 63 | 982.7 |
| 20260505192215 | 12 | 279 | 4.8 | 8.0 | 0.00 | 0.00 | 0.00 | 64 | 982.8 |
| 20260505191713 | 12 | 206 | 1.6 | 8.0 | 0.00 | 0.00 | 0.00 | 65 | 982.6 |
| 20260505191212 | 12 | 203 | 3.2 | 4.8 | 0.00 | 0.00 | 0.00 | 65 | 982.3 |
| 20260505190708 | 12 | 0 | 3.2 | 4.8 | 0.00 | 0.00 | 0.00 | 64 | 982.6 |
| 20260505190207 | 12 | 275 | 0.0 | 3.2 | 0.00 | 0.00 | 0.00 | 65 | 982.6 |
| 20260505185704 | 12 | 238 | 0.0 | 9.7 | 0.00 | 0.00 | 0.00 | 64 | 982.8 |
| 20260505185200 | 12 | 14 | 0.0 | 4.8 | 0.00 | 0.00 | 0.00 | 64 | 982.5 |
| 20260505184657 | 12 | 358 | 4.8 | 9.7 | 0.00 | 0.00 | 0.00 | 62 | 982.6 |
| 20260505184154 | 12 | 154 | 3.2 | 8.0 | 0.00 | 0.00 | 0.00 | 63 | 982.6 |
| 20260505183651 | 12 | 306 | 4.8 | 8.0 | 0.00 | 0.00 | 0.00 | 62 | 982.5 |
| 20260505183148 | 12 | 285 | 0.0 | 6.4 | 0.00 | 0.00 | 0.00 | 62 | 982.4 |
| 20260505182645 | 12 | 280 | 4.8 | 8.0 | 0.00 | 0.00 | 0.00 | 62 | 982.3 |
| 20260505182142 | 12 | 338 | 3.2 | 4.8 | 0.00 | 0.00 | 0.00 | 64 | 982.3 |
| 20260505181638 | 12 | 244 | 4.8 | 14.5 | 0.00 | 0.00 | 0.00 | 61 | 982.2 |
| 20260505181136 | 12 | 290 | 6.4 | 8.0 | 0.00 | 0.00 | 0.00 | 60 | 981.9 |
| 20260505180631 | 12 | 251 | 6.4 | 11.3 | 0.00 | 0.00 | 0.00 | 58 | 981.9 |
| 20260505180129 | 13 | 270 | 3.2 | 9.7 | 0.00 | 0.00 | 0.00 | 61 | 981.9 |
| 20260505175625 | 12 | 334 | 3.2 | 4.8 | 0.00 | 0.00 | 0.00 | 66 | 982.1 |
| 20260505175122 | 12 | 249 | 4.8 | 6.4 | 0.00 | 0.00 | 0.00 | 69 | 981.9 |
| 20260505174618 | 12 | 283 | 3.2 | 6.4 | 0.00 | 0.00 | 0.00 | 70 | 981.8 |
| 20260505174114 | 12 | 274 | 0.0 | 4.8 | 0.00 | 0.00 | 0.00 | 70 | 981.9 |
| 20260505173611 | 12 | 205 | 6.4 | 8.0 | 0.00 | 0.00 | 0.00 | 70 | 981.9 |
| 20260505173108 | 12 | 192 | 4.8 | 6.4 | 0.00 | 0.00 | 0.00 | 69 | 982.0 |
| 20260505172606 | 11 | 344 | 3.2 | 4.8 | 0.00 | 0.00 | 0.00 | 71 | 982.0 |
| 20260505172103 | 11 | 112 | 0.0 | 4.8 | 0.00 | 0.00 | 0.00 | 71 | 981.7 |
| 20260505171556 | 11 | 0 | 3.2 | 9.7 | 0.00 | 0.00 | 0.00 | 73 | 981.7 |
| 20260505171054 | 12 | 318 | 4.8 | 4.8 | 0.05 | 0.00 | 0.00 | 74 | 981.8 |
| 20260505170551 | 11 | 235 | 4.8 | 9.7 | 0.05 | 0.00 | 0.00 | 73 | 981.8 |
| 20260505170047 | 11 | 192 | 4.8 | 9.7 | 0.00 | 0.00 | 0.00 | 74 | 981.9 |
| 20260505165542 | 11 | 225 | 6.4 | 9.7 | 0.00 | 0.00 | 0.00 | 74 | 981.8 |
| 20260505165038 | 11 | 264 | 1.6 | 4.8 | 0.00 | 0.00 | 0.00 | 76 | 982.0 |
| 20260505164534 | 11 | 289 | 1.6 | 4.8 | 0.00 | 0.00 | 0.00 | 77 | 982.2 |
| 20260505164032 | 10 | 270 | 3.2 | 4.8 | 0.00 | 0.00 | 0.00 | 77 | 982.1 |
| 20260505163531 | 10 | 261 | 0.0 | 4.8 | 0.00 | 0.00 | 0.00 | 78 | 982.0 |
| 20260505163027 | 10 | 15 | 0.0 | 3.2 | 0.00 | 0.00 | 0.00 | 78 | 982.0 |
| 20260505162521 | 10 | 216 | 0.0 | 4.8 | 0.00 | 0.00 | 0.00 | 79 | 982.2 |
| 20260505162018 | 10 | 194 | 4.8 | 6.4 | 0.00 | 0.00 | 0.00 | 79 | 982.1 |
| 20260505161514 | 10 | 168 | 1.6 | 4.8 | 0.00 | 0.00 | 0.00 | 80 | 982.0 |
| 20260505161011 | 10 | 200 | 1.6 | 4.8 | 0.00 | 0.00 | 0.00 | 80 | 982.1 |
| 20260505160509 | 10 | 148 | 0.0 | 4.8 | 0.00 | 0.00 | 0.00 | 79 | 981.9 |
| 20260505152946 | 9 | 127 | 0.0 | 3.2 | 0.00 | 0.00 | 0.00 | 80 | 982.1 |
| 20260505152443 | 9 | 6 | 0.0 | 3.2 | 0.00 | 0.00 | 0.00 | 76 | 982.2 |
| 20260505151943 | 10 | 261 | 0.0 | 6.4 | 0.00 | 0.00 | 0.00 | 77 | 982.2 |
| 20260505151439 | 10 | 331 | 0.0 | 3.2 | 0.00 | 0.00 | 0.00 | 75 | 982.1 |
| 20260505150937 | 10 | 331 | 0.0 | 4.8 | 0.00 | 0.00 | 0.00 | 75 | 982.0 |
| 20260505150433 | 10 | 49 | 0.0 | 4.8 | 0.00 | 0.00 | 0.00 | 73 | 981.7 |